Weather History for Millinocket, ME

Change the Weather History Date:

Saturday, July 13, 2013

  Actual Average Record
Temperature  
Mean Temperature 70 °F 68 °F  
Max Temperature 88 °F 79 °F 93 °F (1943)
Min Temperature 51 °F 58 °F 43 °F (1940)
Degree Days  
Heating Degree Days 0 1  
Month to date heating degree days 3 13  
Since 1 June heating degree days 104 129  
Since 1 July heating degree days 3 13  
Cooling Degree Days 5 4  
Month to date cooling degree days 101 49  
Year to date cooling degree days 170 104  
Since 1 June cooling degree days 162 98  
Growing Degree Days 19 (Base 50)    
Moisture  
Dew Point 53 °F    
Average Humidity 60    
Maximum Humidity 93    
Minimum Humidity 27    
Precipitation  
Precipitation 0.00 in 0.13 in 1.66 in (1960)
Month to date precipitation 0.29 1.77  
Year to date precipitation 17.16 20.91  
Sea Level Pressure  
Sea Level Pressure 30.28 in    
Wind  
Wind Speed 2 mph (South)    
Max Wind Speed 8 mph    
Max Gust Speed 14 mph    
Visibility 10 miles    
Events      
T = Trace of Precipitation, MM = Missing Value Source: NWS Daily Summary

Daily Weather History Graph

Daily Weather History Graph

Search for Another Location

Airport:

Trip Planner

Search our weather history database for the weather conditions in past years. The results will help you decide how hot, cold, wet, or windy it might be!

Date:

Astronomy

Jul. 13, 2013 Rise Set
Actual Time 4:58 AM EDT 8:22 PM EDT
Civil Twilight 4:21 AM EDT 8:58 PM EDT
Nautical Twilight 3:33 AM EDT 9:46 PM EDT
Astronomical Twilight 2:31 AM EDT 10:48 PM EDT
Moon 10:29 AM EDT (7/13) 10:40 PM EDT (7/13)
Length of Visible Light 16h 37m
Length of Day
15h 23m
Waxing Crescent, 25% of the Moon is Illuminated
Jul 13
Waxing Crescent
Jul 15
First Quarter
Jul 22
Full
Jul 29
Last Quarter
Aug 6
New

Hourly Weather History & Observations

Time (EDT) Temp. Heat Index Dew Point Humidity Pressure Visibility Wind Dir Wind Speed Gust Speed Precip Events Conditions
12:53 AM 57.0 °F - 54.0 °F 89% 30.26 in 10.0 mi Calm Calm - N/A   Clear
1:53 AM 55.9 °F - 52.0 °F 87% 30.27 in 10.0 mi Calm Calm - N/A   Clear
2:53 AM 54.0 °F - 52.0 °F 93% 30.28 in 10.0 mi Calm Calm - N/A   Clear
3:53 AM 53.1 °F - 50.0 °F 89% 30.29 in 10.0 mi Calm Calm - N/A   Clear
4:53 AM 52.0 °F - 48.9 °F 89% 30.29 in 10.0 mi Calm Calm - N/A   Clear
5:53 AM 53.1 °F - 50.0 °F 89% 30.29 in 10.0 mi Calm Calm - N/A   Clear
6:53 AM 57.9 °F - 53.1 °F 84% 30.32 in 10.0 mi Calm Calm - N/A   Clear
7:53 AM 66.0 °F - 54.0 °F 65% 30.32 in 10.0 mi Calm Calm - N/A   Clear
8:53 AM 72.0 °F - 55.9 °F 57% 30.33 in 10.0 mi Calm Calm - N/A   Clear
9:53 AM 77.0 °F - 55.0 °F 47% 30.32 in 10.0 mi Calm Calm - N/A   Clear
10:53 AM 81.0 °F - 46.0 °F 29% 30.32 in 10.0 mi Variable 3.5 mph - N/A   Clear
11:53 AM 81.0 °F - 46.9 °F 30% 30.31 in 10.0 mi Variable 3.5 mph - N/A   Clear
12:53 PM 84.0 °F - 46.9 °F 27% 30.29 in 10.0 mi NW 5.8 mph - N/A   Clear
1:53 PM 84.9 °F 83.2 °F 53.1 °F 33% 30.28 in 10.0 mi Variable 3.5 mph - N/A   Clear
2:53 PM 84.9 °F - 52.0 °F 32% 30.27 in 10.0 mi Calm Calm - N/A   Clear
3:53 PM 86.0 °F 84.0 °F 53.1 °F 32% 30.26 in 10.0 mi Variable 4.6 mph - N/A   Clear
4:53 PM 86.0 °F 84.0 °F 53.1 °F 32% 30.25 in 10.0 mi South 4.6 mph - N/A   Clear
5:53 PM 84.9 °F 83.6 °F 55.0 °F 36% 30.24 in 10.0 mi Calm Calm - N/A   Clear
6:53 PM 82.9 °F 82.1 °F 55.9 °F 39% 30.25 in 10.0 mi Variable 3.5 mph - N/A   Clear
7:53 PM 79.0 °F - 57.0 °F 47% 30.25 in 10.0 mi Calm Calm - N/A   Clear
8:53 PM 75.9 °F - 57.0 °F 52% 30.26 in 10.0 mi South 3.5 mph - N/A   Clear
9:53 PM 71.1 °F - 59.0 °F 66% 30.27 in 10.0 mi Calm Calm - N/A   Clear
10:53 PM 68.0 °F - 59.0 °F 73% 30.27 in 10.0 mi Calm Calm - N/A   Clear
11:53 PM 64.9 °F - 60.1 °F 84% 30.27 in 10.0 mi SSE 3.5 mph - N/A   Clear